Weather in Ketanda

Russia / Khabarovsk Krai     60°24′46″N   140°56′43″E
temp.,
°C
wind,
m/s
gust,
m/s
humid.,
%
clouds,
%
prec.,
mm/h
press.,
hPa
HPBL,
m
26 february, fri
fri2601:00−27w1189100 0.0 102419
04:00−28w1181100 0.0 102419
07:00−29w117797 0.0 102519
10:00−25w117491 0.0 102549
13:00−21w227370 0.0 1024224
16:00−21wsw228862 0.0 1024106
19:00−29wsw1110053 0.0 102719
22:00−30w1110047 0.0 102819
27 february, sat
sat2701:00−31wnw11961 0.0 102819
04:00−32nw11841 0.0 102819
07:00−32wnw12791 0.0 102819
10:00−27wnw11738 0.0 102773
13:00−23wnw22700 0.0 1025239
16:00−21wsw11790 0.0 1023109
19:00−29n11930 0.0 102420
22:00−29nne11830 0.0 102520
28 february, sun
sun2801:00−28ne11770 0.0 102419
04:00−29ne11740 0.0 102219
07:00−28ne127353 0.0 102219
10:00−23nne117476 0.0 102065
13:00−20n2174100 0.0 1018287
16:00−18nw1183100 0.0 1016325
19:00−25n229888 0.0 101720
22:00−26n338978 0.0 101720
1 march, mon
mon101:00−27n338554 0.0 101519
04:00−28nnw338464 0.0 101519
07:00−28nnw338373 0.0 101519
10:00−25nw238357 0.0 1015102
13:00−22wnw237868 0.0 1013397
16:00−20wnw237879 0.0 1013495
19:00−24nw2284100 0.0 101520
22:00−26nnw3382100 0.0 101623
2 march, tue
tue201:00−27nnw3381100 0.0 101530
04:00−28nw2385100 0.0 101524
07:00−28nw2298100 0.1 101619
10:00−26nw2294100 0.3 1016217
13:00−23wnw2187100 0.1 1015308
16:00−22wsw1192100 0.3 1015214
19:00−25w11100100 0.1 101720
22:00−26wnw00100100 0.3 101820